Change the Weather History Date:

Friday, February 15, 2013

  Actual Average (KALS) Record (KALS)
Temperature  
Mean Temperature - 23 °F  
Max Temperature - 40 °F 62 °F (2014)
Min Temperature - 6 °F -19 °F (1948)
Degree Days  
Heating Degree Days 42  
Month to date heating degree days 669  
Since 1 July heating degree days 5816  
Cooling Degree Days 0  
Month to date cooling degree days 0  
Year to date cooling degree days 0  
Moisture  
Dew Point -    
Average Humidity    
Maximum Humidity    
Minimum Humidity    
Precipitation  
Precipitation 0.00 in 0.01 in 0.23 in (1993)
Month to date precipitation 0.13  
Year to date precipitation 0.39  
Snow  
Snow 0.00 in 0.10 in 0.80 in (1965)
Month to date snowfall 2.1  
Since 1 July snowfall 16.4  
Snow Depth -    
Sea Level Pressure  
Sea Level Pressure 30.25 in    
Wind  
Wind Speed 14 mph (NNW)    
Max Wind Speed 36 mph    
Max Gust Speed 48 mph    
Visibility 10 miles    
Events      
T = Trace of Precipitation, MM = Missing Value Source: NWS Daily Summary

Daily Weather History Graph

Daily Weather History Graph

Search for Another Location

Airport or City:

Trip Planner

Search our weather history database for the weather conditions in past years. The results will help you decide how hot, cold, wet, or windy it might be!

Date:

Astronomy

Feb. 15, 2013 Rise Set
Actual Time 6:54 AM MST 5:43 PM MST
Civil Twilight 6:27 AM MST 6:10 PM MST
Nautical Twilight 5:56 AM MST 6:41 PM MST
Astronomical Twilight 5:26 AM MST 7:12 PM MST
Moon 9:38 AM MST (2/15) 11:40 PM MST (2/15)
Length of Visible Light 11h 43m
Length of Day
10h 49m
Waxing Crescent, 31% of the Moon is Illuminated
Feb 15
Waxing Crescent
Feb 17
First Quarter
Feb 25
Full
Mar 4
Last Quarter
Mar 11
New

Hourly Weather History & Observations

Time (MST) Temp. Dew Point Humidity Pressure Visibility Wind Dir Wind Speed Gust Speed Precip Events Conditions
12:15 AM - - N/A% 30.19 in 10.0 mi North 9.2 mph 16.1 mph N/A   Scattered Clouds
12:54 AM - - N/A% 30.19 in 10.0 mi NNW 12.7 mph - N/A   Clear
1:15 AM - - N/A% 30.18 in 10.0 mi NNW 17.3 mph 23.0 mph N/A   Clear
1:34 AM - - N/A% 30.18 in 10.0 mi NNW 15.0 mph - N/A   Clear
1:55 AM - - N/A% 30.19 in 10.0 mi NNW 13.8 mph - N/A   Clear
2:15 AM - - N/A% 30.19 in 10.0 mi NNW 11.5 mph - N/A   Clear
2:35 AM - - N/A% 30.19 in 10.0 mi NNW 10.4 mph - N/A   Clear
2:55 AM - - N/A% 30.19 in 10.0 mi NNW 8.1 mph - N/A   Clear
3:15 AM - - N/A% 30.19 in 10.0 mi North 5.8 mph - N/A   Clear
3:35 AM - - N/A% 30.19 in 10.0 mi ENE 4.6 mph - N/A   Clear
3:55 AM - - N/A% 30.19 in 10.0 mi Calm Calm - N/A   Clear
4:15 AM - - N/A% 30.19 in 10.0 mi Calm Calm - N/A   Clear
4:35 AM - - N/A% 30.19 in 10.0 mi Calm Calm - N/A   Clear
5:15 AM - - N/A% 30.19 in 10.0 mi Calm Calm - N/A   Clear
5:35 AM - - N/A% 30.19 in 10.0 mi ENE 5.8 mph - N/A   Clear
5:55 AM - - N/A% 30.20 in 10.0 mi North 10.4 mph - N/A   Clear
6:15 AM - - N/A% 30.21 in 10.0 mi North 9.2 mph - N/A   Clear
6:55 AM - - N/A% 30.21 in 10.0 mi North 10.4 mph - N/A   Scattered Clouds
7:15 AM - - N/A% 30.21 in 10.0 mi NNW 10.4 mph 16.1 mph N/A   Overcast
7:35 AM - - N/A% 30.21 in 10.0 mi NNW 10.4 mph 16.1 mph N/A   Overcast
7:55 AM - - N/A% 30.23 in 10.0 mi NNW 6.9 mph - N/A   Scattered Clouds
8:15 AM - - N/A% 30.24 in 10.0 mi NNW 12.7 mph 17.3 mph N/A   Clear
8:35 AM - - N/A% 30.24 in 10.0 mi NNW 10.4 mph 18.4 mph N/A   Scattered Clouds
8:55 AM - - N/A% 30.25 in 10.0 mi North 11.5 mph - N/A   Mostly Cloudy
9:15 AM - - N/A% 30.26 in 10.0 mi North 3.5 mph - N/A   Overcast
9:35 AM - - N/A% 30.26 in 10.0 mi North 10.4 mph - N/A   Overcast
9:55 AM - - N/A% 30.25 in 10.0 mi NNW 16.1 mph 20.7 mph N/A   Mostly Cloudy
10:15 AM - - N/A% 30.25 in 10.0 mi North 15.0 mph 24.2 mph N/A   Scattered Clouds
10:55 AM - - N/A% 30.25 in 10.0 mi NNW 16.1 mph 32.2 mph N/A   Scattered Clouds
11:15 AM - - N/A% 30.24 in 10.0 mi NNW 20.7 mph 33.4 mph N/A   Scattered Clouds
11:35 AM - - N/A% 30.24 in 10.0 mi NNW 25.3 mph 35.7 mph N/A   Scattered Clouds
11:55 AM - - N/A% 30.24 in 10.0 mi NW 24.2 mph 39.1 mph N/A   Scattered Clouds
12:15 PM - - N/A% 30.23 in 10.0 mi NW 28.8 mph 38.0 mph N/A   Scattered Clouds
12:35 PM - - N/A% 30.23 in 10.0 mi NW 29.9 mph 38.0 mph N/A   Scattered Clouds
12:55 PM - - N/A% 30.21 in 10.0 mi NW 35.7 mph 47.2 mph N/A   Clear
1:15 PM - - N/A% 30.20 in 10.0 mi NW 34.5 mph 48.3 mph N/A   Clear
1:35 PM - - N/A% 30.21 in 10.0 mi NNW 32.2 mph 47.2 mph N/A   Clear
1:55 PM - - N/A% 30.21 in 10.0 mi NNW 29.9 mph 43.7 mph N/A   Clear
2:15 PM - - N/A% 30.21 in 10.0 mi NW 35.7 mph 43.7 mph N/A   Clear
2:35 PM - - N/A% 30.23 in 10.0 mi NNW 28.8 mph 41.4 mph N/A   Clear
2:55 PM - - N/A% 30.24 in 10.0 mi NW 34.5 mph 43.7 mph N/A   Clear
3:15 PM - - N/A% 30.24 in 10.0 mi NW 29.9 mph 41.4 mph N/A   Clear
3:35 PM - - N/A% 30.25 in 10.0 mi NNW 28.8 mph 42.6 mph N/A   Clear
3:55 PM - - N/A% 30.26 in 10.0 mi NW 35.7 mph 43.7 mph N/A   Clear
4:15 PM - - N/A% 30.26 in 10.0 mi NNW 24.2 mph 39.1 mph N/A   Scattered Clouds
4:34 PM - - N/A% 30.26 in 10.0 mi NNW 24.2 mph 40.3 mph N/A   Scattered Clouds
4:55 PM - - N/A% 30.27 in 10.0 mi NNW 27.6 mph 35.7 mph N/A   Clear
5:15 PM - - N/A% 30.27 in 10.0 mi NW 20.7 mph 29.9 mph N/A   Clear
5:35 PM - - N/A% 30.28 in 10.0 mi NNW 19.6 mph 29.9 mph N/A   Clear
5:55 PM - - N/A% 30.29 in 10.0 mi NNW 15.0 mph 21.9 mph N/A   Clear
6:15 PM - - N/A% 30.29 in 10.0 mi NW 10.4 mph 21.9 mph N/A   Clear
6:35 PM - - N/A% 30.29 in 10.0 mi NW 15.0 mph - N/A   Clear
6:55 PM - - N/A% 30.29 in 10.0 mi NW 20.7 mph 26.5 mph N/A   Clear
7:15 PM - - N/A% 30.31 in 10.0 mi NW 21.9 mph 33.4 mph N/A   Clear
7:35 PM - - N/A% 30.32 in 10.0 mi NNW 17.3 mph 25.3 mph N/A   Clear
7:55 PM - - N/A% 30.32 in 10.0 mi NNW 24.2 mph 31.1 mph N/A   Clear
8:15 PM - - N/A% 30.32 in 10.0 mi NNW 21.9 mph 34.5 mph N/A   Clear
8:35 PM - - N/A% 30.33 in 10.0 mi NNW 17.3 mph 24.2 mph N/A   Clear
8:55 PM - - N/A% 30.33 in 10.0 mi North 13.8 mph 24.2 mph N/A   Clear
9:15 PM - - N/A% 30.34 in 10.0 mi North 15.0 mph 24.2 mph N/A   Clear
9:35 PM - - N/A% 30.34 in 10.0 mi North 13.8 mph 20.7 mph N/A   Clear
9:55 PM - - N/A% 30.34 in 10.0 mi NNW 12.7 mph - N/A   Clear
10:14 PM - - N/A% 30.34 in 10.0 mi North 10.4 mph - N/A   Clear
10:35 PM - - N/A% 30.35 in 10.0 mi Calm Calm - N/A   Clear
10:55 PM - - N/A% 30.35 in 10.0 mi WNW 3.5 mph - N/A   Clear
11:15 PM - - N/A% 30.35 in 10.0 mi NW 6.9 mph - N/A   Clear
11:35 PM - - N/A% 30.35 in 10.0 mi NNW 6.9 mph - N/A   Clear
11:55 PM - - N/A% 30.35 in 10.0 mi North 8.1 mph - N/A   Clear